User: anonymous   Login
Location: Skalnate Pleso
(49.1889°N, 20.2450°E)
Time: 23:30:44
(UTC+01:00)
Language:

Okean O Rocket - Orbit

View from above orbital plane
View from above orbital plane
View from above satellite
View from above satellite

Ground track
Ground track

The orbit data is extracted from the following two-line orbital elements,

1 25861U 99039B   20023.50523985 +.00000010 +00000-0 +89788-5 0  9992
2 25861 098.2030 022.8190 0014343 266.3881 207.1476 14.78561112106052
Epoch (UTC): 23 January 2020 12:07:32
Eccentricity: 0.0014343
inclination: 98.2030°
perigee height: 624 km
apogee height: 644 km
right ascension of ascending node: 22.8190°
argument of perigee: 266.3881°
revolutions per day: 14.78561112
mean anomaly at epoch: 207.1476°
orbit number at epoch: 10605

The dashed part of the orbit path shows where the satellite is in the earth's shadow,  

DLR